| time (UTC) | temp F | wind direction | speed MPH | gust MPH | rain 1hr in | rain 24hr in | rain mn in | humidity % | barometer mb |
| 20260902031553 | 61 | 164 | 5.0 | 9.0 | 0.00 | 0.00 | 0.00 | 90 | 1010.7 |
| 20260902030053 | 61 | 155 | 3.0 | 6.0 | 0.00 | 0.00 | 0.00 | 90 | 1010.6 |
| 20260902024555 | 61 | 207 | 4.0 | 8.0 | 0.00 | 0.00 | 0.00 | 88 | 1010.5 |
| 20260902023053 | 62 | 190 | 3.0 | 9.0 | 0.00 | 0.00 | 0.00 | 85 | 1010.5 |
| 20260902021553 | 63 | 227 | 5.0 | 16.0 | 0.00 | 0.00 | 0.00 | 80 | 1010.7 |
| 20260902020051 | 65 | 277 | 4.0 | 10.0 | 0.00 | 0.00 | 0.00 | 78 | 1010.4 |
| 20260902014555 | 65 | 211 | 2.0 | 7.0 | 0.00 | 0.00 | 0.00 | 78 | 1010.4 |
| 20260902013055 | 64 | 238 | 4.0 | 10.0 | 0.00 | 0.00 | 0.00 | 79 | 1010.3 |
| 20260902011552 | 64 | 193 | 4.0 | 7.0 | 0.00 | 0.00 | 0.00 | 80 | 1010.2 |
| 20260902010053 | 64 | 251 | 4.0 | 14.0 | 0.00 | 0.00 | 0.00 | 80 | 1010.4 |
| 20260902004557 | 65 | 271 | 4.0 | 8.0 | 0.00 | 0.00 | 0.00 | 78 | 1010.4 |
| 20260902003124 | 65 | 261 | 5.0 | 10.0 | 0.00 | 0.00 | 0.00 | 78 | 1010.4 |
| 20260902001547 | 64 | 248 | 6.0 | 10.0 | 0.00 | 0.00 | 0.00 | 78 | 1010.4 |
| 20260902000048 | 64 | 179 | 5.0 | 11.0 | 0.00 | 0.00 | 0.00 | 78 | 1010.5 |
| 20260901234545 | 65 | 223 | 7.0 | 17.0 | 0.00 | 0.00 | 0.00 | 78 | 1010.5 |
| 20260901233045 | 65 | 228 | 7.0 | 13.0 | 0.00 | 0.00 | 0.00 | 77 | 1010.5 |
| 20260901231557 | 65 | 252 | 4.0 | 10.0 | 0.00 | 0.00 | 0.00 | 78 | 1010.4 |
| 20260901230045 | 65 | 222 | 5.0 | 13.0 | 0.00 | 0.00 | 0.00 | 78 | 1010.4 |
| 20260901224548 | 65 | 217 | 4.0 | 13.0 | 0.00 | 0.00 | 0.00 | 78 | 1010.4 |
| 20260901223044 | 65 | 252 | 8.0 | 14.0 | 0.00 | 0.00 | 0.00 | 78 | 1010.5 |
| 20260901221544 | 65 | 247 | 5.0 | 11.0 | 0.00 | 0.00 | 0.00 | 78 | 1010.6 |
| 20260901220048 | 65 | 291 | 5.0 | 10.0 | 0.00 | 0.00 | 0.00 | 79 | 1010.5 |
| 20260901214543 | 64 | 245 | 2.0 | 7.0 | 0.00 | 0.00 | 0.00 | 79 | 1010.5 |
| 20260901213041 | 65 | 240 | 4.0 | 11.0 | 0.00 | 0.00 | 0.00 | 78 | 1010.5 |
| 20260901211540 | 65 | 284 | 4.0 | 10.0 | 0.00 | 0.00 | 0.00 | 78 | 1010.6 |
| 20260901210052 | 65 | 287 | 3.0 | 11.0 | 0.00 | 0.00 | 0.00 | 77 | 1010.6 |
| 20260901204540 | 65 | 218 | 8.0 | 14.0 | 0.00 | 0.00 | 0.00 | 75 | 1010.6 |
| 20260901203042 | 66 | 271 | 3.0 | 12.0 | 0.00 | 0.00 | 0.00 | 76 | 1010.7 |
| 20260901201641 | 66 | 273 | 5.0 | 11.0 | 0.00 | 0.00 | 0.00 | 75 | 1010.6 |
| 20260901200038 | 66 | 259 | 1.0 | 6.0 | 0.00 | 0.00 | 0.00 | 76 | 1010.7 |
| 20260901194535 | 66 | 236 | 2.0 | 5.0 | 0.00 | 0.00 | 0.00 | 76 | 1010.7 |
| 20260901193040 | 66 | 237 | 0.0 | 5.0 | 0.00 | 0.00 | 0.00 | 75 | 1010.7 |
| 20260901191538 | 66 | 239 | 2.0 | 8.0 | 0.00 | 0.00 | 0.00 | 75 | 1010.7 |
| 20260901190032 | 65 | 214 | 2.0 | 6.0 | 0.00 | 0.00 | 0.00 | 77 | 1010.8 |
| 20260901184531 | 65 | 265 | 3.0 | 9.0 | 0.00 | 0.00 | 0.00 | 78 | 1011.0 |
| 20260901183028 | 65 | 232 | 3.0 | 10.0 | 0.00 | 0.00 | 0.00 | 78 | 1010.9 |
| 20260901181530 | 64 | 253 | 4.0 | 12.0 | 0.00 | 0.00 | 0.00 | 79 | 1010.9 |
| 20260901180031 | 64 | 308 | 2.0 | 5.0 | 0.00 | 0.00 | 0.00 | 82 | 1010.9 |
| 20260901174523 | 63 | 282 | 3.0 | 6.0 | 0.00 | 0.00 | 0.00 | 83 | 1010.7 |
| 20260901173021 | 63 | 296 | 2.0 | 5.0 | 0.00 | 0.00 | 0.00 | 85 | 1010.6 |
| 20260901171518 | 62 | 233 | 2.0 | 7.0 | 0.00 | 0.00 | 0.00 | 84 | 1010.6 |
| 20260901170017 | 61 | 198 | 3.0 | 10.0 | 0.00 | 0.00 | 0.00 | 85 | 1010.7 |
| 20260901164515 | 61 | 232 | 3.0 | 10.0 | 0.00 | 0.00 | 0.00 | 86 | 1010.7 |
| 20260901163026 | 60 | 223 | 4.0 | 12.0 | 0.00 | 0.00 | 0.00 | 86 | 1010.9 |
| 20260901161512 | 60 | 244 | 6.0 | 11.0 | 0.00 | 0.00 | 0.00 | 88 | 1010.9 |
| 20260901160011 | 60 | 226 | 4.0 | 9.0 | 0.00 | 0.00 | 0.00 | 88 | 1010.8 |
| 20260901154505 | 59 | 181 | 3.0 | 8.0 | 0.00 | 0.00 | 0.00 | 89 | 1011.0 |
| 20260901153008 | 59 | 188 | 1.0 | 5.0 | 0.00 | 0.00 | 0.00 | 90 | 1011.1 |
| 20260901151504 | 58 | 198 | 5.0 | 8.0 | 0.00 | 0.00 | 0.00 | 91 | 1011.1 |
| 20260901150002 | 58 | 237 | 3.0 | 8.0 | 0.00 | 0.00 | 0.00 | 91 | 1011.0 |
| 20260901144505 | 58 | 240 | 4.0 | 10.0 | 0.00 | 0.00 | 0.00 | 92 | 1011.0 |
| 20260901143102 | 58 | 242 | 2.0 | 7.0 | 0.00 | 0.00 | 0.00 | 92 | 1010.8 |
| 20260901141558 | 57 | 245 | 4.0 | 12.0 | 0.00 | 0.00 | 0.00 | 92 | 1010.7 |
| 20260901134656 | 56 | 197 | 2.0 | 5.0 | 0.00 | 0.00 | 0.00 | 91 | 1010.5 |
| 20260901133104 | 56 | 189 | 2.0 | 4.0 | 0.00 | 0.00 | 0.00 | 90 | 1010.5 |
| 20260901131555 | 56 | 185 | 3.0 | 6.0 | 0.00 | 0.00 | 0.00 | 90 | 1010.5 |
| 20260901130052 | 56 | 173 | 2.0 | 5.0 | 0.00 | 0.00 | 0.00 | 90 | 1010.4 |
| 20260901124551 | 56 | 171 | 4.0 | 5.0 | 0.00 | 0.00 | 0.00 | 89 | 1010.3 |
| 20260901123050 | 56 | 190 | 3.0 | 5.0 | 0.00 | 0.00 | 0.00 | 89 | 1010.3 |
| 20260901121552 | 57 | 232 | 2.0 | 4.0 | 0.00 | 0.00 | 0.00 | 89 | 1010.1 |
| 20260901120047 | 57 | 232 | 3.0 | 7.0 | 0.00 | 0.00 | 0.00 | 91 | 1010.0 |
| 20260901114548 | 55 | 148 | 3.0 | 4.0 | 0.00 | 0.00 | 0.00 | 91 | 1009.9 |
| 20260901113044 | 54 | 118 | 1.0 | 2.0 | 0.00 | 0.00 | 0.00 | 90 | 1009.7 |
| 20260901111542 | 55 | 118 | 1.0 | 3.0 | 0.00 | 0.00 | 0.00 | 89 | 1009.8 |
| 20260901110046 | 55 | 118 | 0.0 | 0.0 | 0.00 | 0.00 | 0.00 | 89 | 1009.6 |
| 20260901104546 | 55 | 118 | 0.0 | 0.0 | 0.00 | 0.00 | 0.00 | 89 | 1009.6 |
| 20260901103043 | 55 | 118 | 0.0 | 0.0 | 0.00 | 0.00 | 0.00 | 89 | 1009.6 |
| 20260901101535 | 56 | 118 | 0.0 | 1.0 | 0.00 | 0.00 | 0.00 | 89 | 1009.6 |
| 20260901100048 | 56 | 118 | 1.0 | 3.0 | 0.00 | 0.00 | 0.00 | 89 | 1009.5 |
| 20260901094533 | 56 | 117 | 3.0 | 4.0 | 0.00 | 0.00 | 0.00 | 88 | 1009.3 |
| 20260901093132 | 57 | 117 | 3.0 | 4.0 | 0.00 | 0.00 | 0.00 | 86 | 1009.3 |
| 20260901091534 | 57 | 117 | 0.0 | 3.0 | 0.00 | 0.00 | 0.00 | 86 | 1009.4 |
| 20260901090043 | 57 | 117 | 0.0 | 0.0 | 0.00 | 0.00 | 0.00 | 87 | 1009.3 |
| 20260901084526 | 58 | 117 | 0.0 | 3.0 | 0.00 | 0.00 | 0.00 | 87 | 1009.3 |
| 20260901083026 | 58 | 119 | 3.0 | 6.0 | 0.00 | 0.00 | 0.00 | 87 | 1009.2 |
| 20260901081523 | 58 | 74 | 2.0 | 4.0 | 0.00 | 0.00 | 0.00 | 85 | 1009.2 |
| 20260901080021 | 58 | 329 | 1.0 | 5.0 | 0.00 | 0.00 | 0.00 | 85 | 1009.1 |
| 20260901074519 | 59 | 30 | 1.0 | 2.0 | 0.00 | 0.00 | 0.00 | 83 | 1008.9 |
| 20260901073026 | 59 | 30 | 0.0 | 0.0 | 0.00 | 0.00 | 0.00 | 83 | 1008.8 |
| 20260901071516 | 59 | 30 | 0.0 | 2.0 | 0.00 | 0.00 | 0.00 | 84 | 1008.9 |
| 20260901070015 | 59 | 31 | 2.0 | 6.0 | 0.00 | 0.00 | 0.00 | 84 | 1008.9 |
| 20260901064513 | 59 | 68 | 2.0 | 6.0 | 0.00 | 0.00 | 0.00 | 84 | 1008.9 |
| 20260901063014 | 59 | 53 | 2.0 | 6.0 | 0.00 | 0.00 | 0.00 | 83 | 1008.8 |
| 20260901061512 | 59 | 46 | 3.0 | 6.0 | 0.00 | 0.00 | 0.00 | 83 | 1008.9 |
| 20260901060111 | 60 | 41 | 3.0 | 8.0 | 0.00 | 0.00 | 0.00 | 83 | 1009.0 |
| 20260901054513 | 60 | 34 | 3.0 | 6.0 | 0.00 | 0.00 | 0.00 | 83 | 1009.1 |
| 20260901053009 | 60 | 41 | 4.0 | 6.0 | 0.00 | 0.00 | 0.00 | 82 | 1009.1 |
| 20260901051512 | 60 | 67 | 2.0 | 4.0 | 0.00 | 0.00 | 0.00 | 81 | 1009.2 |
| 20260901050009 | 61 | 40 | 0.0 | 3.0 | 0.00 | 0.00 | 0.00 | 80 | 1009.2 |
| 20260901044510 | 61 | 47 | 1.0 | 5.0 | 0.00 | 0.00 | 0.00 | 79 | 1009.2 |
| 20260901043014 | 62 | 16 | 1.0 | 4.0 | 0.00 | 0.00 | 0.00 | 78 | 1009.2 |
| 20260901041511 | 62 | 13 | 1.0 | 6.0 | 0.00 | 0.00 | 0.00 | 77 | 1009.2 |
| 20260901040007 | 63 | 57 | 2.0 | 5.0 | 0.00 | 0.00 | 0.00 | 76 | 1009.2 |
| 20260901034511 | 63 | 34 | 2.0 | 6.0 | 0.00 | 0.00 | 0.00 | 75 | 1009.0 |
| 20260901033021 | 64 | 351 | 4.0 | 10.0 | 0.00 | 0.00 | 0.00 | 74 | 1008.8 |